Flag for Namibia Weather past 2 weeks in Windhoek, Namibia

Now
55 °F

Refreshingly cool.


Feels Like: 55 °F
Forecast: 47 / 86 °F
Wind: 5 mph from East

Location: Windhoek

Current Time: Sep 19, 2014 at 2:16:54 AM

Latest Report: Sep 19, 2014 at 1:00 AM


Visibility: N/A

Pressure: 30.21 "Hg

Humidity: 23%

Dew point: 18 °F

Location of WindhoekLocation

Historic Weather in Windhoek — Graph

°F

Windhoek temperature yesterday

Maximum temperature yesterday: 84 °F (at 4:00 PM)
Minimum temperature yesterday: 54 °F (at 7:00 AM)
Average temperature yesterday: 65 °F

Past Weeks' High & Low Weather Summary

 TemperatureHumidityPressure
High88 °F (Sep 11, 3:00 PM)64% (Sep 14, 5:00 AM)30.42 "Hg (Sep 14, 5:00 AM)
Low46 °F (Sep 5, 6:00 AM)3% (Sep 18, 1:00 PM)30.07 "Hg (Sep 17, 3:00 PM)
Average70 °F21%30.26 "Hg
* Reported Sep 3 11:00 PM — Midnight between Sep 18 and Sep 19, Windhoek, Weather by CustomWeather, © 2014

Note: Actual official high and low records may vary slightly from our data, if they occured in-between our weather recording intervals... More about our weather records

Advertising

Windhoek weather history for previous 24 hours

 ConditionsComfort  
Time TempWeatherWind HumidityBarometerVisibility
12:00 AM
Sep 19
57 °FRefreshingly cool.2 mph23%30.21 "HgN/A
11:00 PM
Sep 18
59 °FRefreshingly cool.3 mph21%30.21 "HgN/A
10:00 PM61 °FRefreshingly cool.6 mph22%30.21 "HgN/A
9:00 PM63 °FMild.6 mph16%30.18 "HgN/A
8:00 PM66 °FClear.5 mph12%30.18 "Hg10 mi
7:00 PM72 °FMild.3 mph8%30.15 "HgN/A
4:00 PM84 °FSunny.9 mph4%30.09 "Hg10 mi
2:00 PM82 °FSunny.9 mph4%30.09 "Hg10 mi
1:00 PM81 °FSunny.9 mph3%30.12 "Hg10 mi
11:00 AM75 °FSunny.5 mph5%30.15 "Hg10 mi
10:00 AM68 °FSunny.5 mph9%30.18 "Hg10 mi
9:00 AM64 °FSunny.2 mph21%30.15 "Hg10 mi
8:00 AM57 °FSunny.6 mph31%30.15 "Hg10 mi
7:00 AM54 °FSunny.3 mph35%30.12 "Hg10 mi
6:00 AM57 °FClear.3 mph29%30.12 "Hg10 mi
5:00 AM57 °FRefreshingly cool.3 mph33%30.12 "HgN/A
4:00 AM59 °FRefreshingly cool.3 mph36%30.12 "HgN/A
3:00 AM61 °FRefreshingly cool.3 mph34%30.12 "HgN/A
2:00 AM61 °FRefreshingly cool.3 mph31%30.12 "HgN/A
Weather by CustomWeather, © 2014

See weather overviewHow to use our weather pages